Probability
18 21 24 25 27 29 29 31 33 35 38 36 30 24 20 18 17 17 16 16 16 16 16 17 18 18 17 15 14 10 7 6 7 5 3 2 2 2 1 0 0 0 0
21 24 26 28 30 31 29 30 32 34 36 35 33 28 24 20 19 19 18 16 15 14 14 15 17 17 16 14 13 12 8 5 6 5 3 1 2 2 1 0 0 1 2
23 25 26 28 32 31 29 29 31 32 33 35 35 31 27 23 21 20 18 15 13 11 11 14 17 18 15 12 12 11 8 6 5 5 4 2 2 3 2 1 1 3 6
20 21 21 24 28 28 26 27 30 32 33 35 35 32 27 24 22 20 17 14 12 10 10 14 17 17 14 10 10 9 8 6 6 6 5 4 4 5 4 3 3 5 7
15 16 16 19 22 23 23 25 29 33 35 34 33 30 28 25 22 19 18 17 15 11 11 13 16 16 13 10 10 11 9 6 6 6 6 5 5 6 6 5 5 5 6
14 14 15 18 21 21 23 26 30 34 35 33 30 28 27 24 21 19 18 19 18 14 12 13 15 14 11 9 10 13 12 8 7 8 7 7 7 6 6 6 6 5 5
15 15 16 18 21 22 24 27 31 33 33 31 28 26 24 20 18 17 16 17 17 15 13 14 14 12 10 8 10 12 12 10 9 9 8 8 8 7 7 6 6 5 4
16 18 18 18 20 22 22 25 28 29 28 25 21 19 18 15 13 13 13 13 12 11 12 13 12 11 10 9 10 9 8 8 8 8 8 8 8 9 7 6 5 4 4
16 17 17 17 17 17 18 21 24 24 22 19 15 12 11 11 10 9 9 9 8 8 9 9 9 8 9 9 9 6 5 6 7 7 7 7 8 9 8 6 5 3 3
13 14 15 15 14 13 14 17 18 18 16 15 13 10 8 8 8 7 7 7 6 6 6 6 6 5 6 7 7 4 4 6 6 6 7 8 8 8 9 8 5 3 3
9 11 14 14 12 11 12 13 13 12 11 11 12 11 7 6 5 5 5 5 4 4 4 4 4 4 4 5 4 3 3 5 6 6 6 6 7 9 10 9 6 4 4
7 10 13 13 12 11 11 11 11 9 8 9 10 9 6 4 4 3 2 3 3 3 3 3 4 4 4 4 3 1 2 3 4 4 4 4 5 8 10 9 6 4 4
7 8 9 11 11 11 12 11 9 8 8 9 9 7 5 4 4 2 2 2 3 4 4 4 5 5 6 5 3 2 2 3 3 3 3 3 4 6 8 7 5 4 5
7 7 7 9 10 11 12 11 9 7 7 8 8 6 5 4 4 4 4 4 5 6 6 6 5 6 8 7 5 4 4 4 4 4 4 3 3 3 4 5 5 5 5
7 7 7 7 8 9 11 10 8 6 6 6 5 5 5 5 5 5 6 6 7 7 6 7 7 7 7 6 5 5 5 5 6 5 4 3 1 1 2 3 4 4 5
6 7 8 7 8 9 10 10 8 5 4 3 2 2 4 5 6 6 7 7 7 7 6 6 7 7 5 5 4 4 4 5 5 5 4 3 1 1 1 1 2 3 3
5 7 8 8 9 10 11 10 7 4 2 1 0 0 2 5 5 6 7 7 7 6 6 5 5 5 5 4 3 3 4 5 5 5 5 3 2 2 2 1 1 2 2
5 6 8 8 8 9 10 9 7 4 2 0 0 1 3 5 5 5 7 7 7 7 7 6 5 6 5 3 1 2 4 6 6 5 5 5 4 3 3 2 2 2 2
5 5 6 6 6 6 7 8 6 4 2 1 1 2 3 4 6 6 7 8 9 8 8 9 8 8 6 3 1 1 4 6 6 5 4 4 5 3 2 3 3 3 3
5 5 5 4 4 4 6 7 5 4 3 2 3 3 3 4 6 6 7 8 10 10 11 11 12 10 7 4 1 2 5 6 6 5 4 3 3 2 1 2 3 3 3
4 4 5 4 4 4 6 6 4 3 3 3 3 3 3 4 5 6 6 8 11 12 12 13 13 10 7 4 1 1 4 5 5 4 4 3 2 1 1 2 3 3 3
1 2 4 5 5 5 6 7 6 5 4 4 4 4 4 3 4 5 6 8 11 12 11 11 12 10 7 4 1 0 1 2 2 2 2 2 1 0 0 1 2 2 2
1 2 4 6 6 6 7 8 8 7 6 6 6 7 6 4 3 4 5 7 9 8 7 8 9 8 7 4 1 0 0 0 0 0 1 1 0 0 0 0 1 1 2
2 3 4 5 6 7 7 8 9 8 7 7 7 7 6 4 3 3 4 5 6 5 5 5 6 7 6 4 2 1 1 0 0 0 0 0 0 0 0 0 0 1 3
3 3 3 4 4 5 6 7 7 7 7 7 6 6 4 2 1 1 1 3 4 3 3 3 4 5 5 4 3 2 2 1 0 1 1 1 0 0 0 0 1 2 3
3 3 3 3 4 4 5 6 6 6 6 7 6 4 2 0 0 0 0 1 2 1 1 1 2 3 3 2 1 1 1 1 0 1 2 2 1 0 0 0 1 2 3
Wind_Speed
5 5 5 6 7 7 7 8 7 7 6 5 5 5 5 4 4 4 4 5 6 6 5 4 5 5 4 4 5 4 4 3 2 2 2 3 3 2 2 2 1 2 2
4 5 5 6 6 7 7 7 8 7 8 6 5 4 4 4 4 3 3 4 5 6 6 5 5 5 4 5 5 4 3 3 3 2 2 3 4 4 3 3 3 2 2
3 4 5 6 6 6 6 6 7 7 7 7 5 4 4 4 4 4 4 4 4 5 5 6 5 5 5 5 6 5 5 3 3 2 2 2 2 2 4 3 2 2 1
3 3 4 5 5 5 5 6 7 6 6 7 6 7 5 5 5 4 4 4 5 5 5 5 5 5 4 5 6 6 4 4 4 3 2 2 2 2 2 3 3 3 3
3 3 4 4 4 5 5 6 6 6 6 6 6 6 5 4 4 4 5 5 5 5 6 5 5 5 4 5 5 5 5 4 4 3 3 2 2 4 3 2 2 2 2
3 2 3 4 4 5 5 6 6 6 6 6 6 6 6 5 5 5 5 5 4 5 6 5 5 5 4 5 5 5 6 4 3 3 3 3 3 3 2 2 3 2 2
2 2 3 3 3 4 5 5 5 5 5 5 5 6 6 5 6 5 5 4 4 4 5 5 5 4 4 5 5 5 5 5 5 4 3 3 3 2 3 3 2 2 2
2 2 2 2 3 4 4 5 5 4 4 4 4 4 4 4 4 4 3 4 3 3 4 4 5 5 5 5 5 5 5 4 4 5 3 4 4 3 3 3 3 3 3
2 1 2 2 2 3 3 3 4 4 4 4 4 4 4 3 3 4 4 3 3 3 5 5 4 5 5 5 5 4 4 4 5 5 5 5 3 4 3 3 3 4 4
2 2 1 2 2 2 2 2 3 3 4 5 4 4 4 4 3 3 3 3 4 3 4 4 5 5 5 5 5 4 4 4 4 3 4 4 4 3 3 4 4 4 5
2 2 2 2 3 2 2 2 3 4 4 4 3 3 4 4 3 3 3 3 4 4 4 4 4 4 5 4 4 5 5 5 5 5 5 5 4 4 4 4 4 4 4
2 3 3 3 2 2 2 2 2 3 3 3 3 3 2 3 3 3 3 3 4 5 5 4 4 4 5 4 4 5 6 6 6 5 5 5 4 5 5 4 5 4 4
3 3 3 3 2 1 1 1 1 1 2 3 3 3 2 3 3 3 4 4 4 4 4 4 4 4 5 5 5 5 6 6 6 5 5 5 5 5 4 5 5 4 4
3 3 3 2 2 2 2 2 1 1 1 2 3 3 3 3 3 3 3 4 4 4 4 4 5 5 5 5 5 5 5 5 6 6 6 6 6 5 5 5 6 5 5
3 3 2 2 1 1 1 2 2 1 1 1 2 2 2 2 2 2 3 3 4 4 4 4 4 5 5 4 4 5 6 6 6 6 6 6 5 3 4 4 4 4 5
2 3 2 2 1 1 1 1 1 1 1 0 1 1 2 2 3 3 3 3 3 4 4 5 5 5 4 2 2 4 6 6 6 6 6 6 7 6 6 5 5 5 6
2 2 2 2 1 1 0 1 1 1 0 0 0 0 1 2 2 2 2 3 4 4 4 5 5 5 4 4 5 5 6 7 6 6 5 6 5 6 6 6 7 7 7
1 1 1 1 1 1 1 0 0 1 1 0 0 1 1 1 2 2 3 3 3 4 4 5 5 5 4 6 6 5 7 7 7 7 7 7 6 6 6 6 7 7 7
1 1 1 1 1 0 0 1 1 1 1 0 1 1 1 2 2 2 3 3 3 3 4 4 4 4 3 5 5 5 6 6 8 8 7 8 7 4 5 7 7 7 6
2 1 1 1 1 1 1 1 1 0 1 1 1 1 2 2 3 3 3 2 3 3 3 3 4 4 3 4 5 6 6 5 6 6 7 7 6 5 6 8 8 8 7
2 1 1 1 1 0 1 1 0 1 2 2 2 2 3 3 3 3 2 2 2 2 3 3 3 4 4 5 5 6 5 5 5 5 5 5 7 6 7 8 8 7 7
2 2 1 1 1 0 0 0 1 1 2 2 2 2 3 3 2 2 2 2 3 3 3 3 3 3 3 3 4 6 6 6 6 6 5 3 6 7 8 8 7 6 7
1 1 1 1 1 0 1 1 1 1 2 2 2 2 3 3 3 3 3 3 3 4 3 3 3 3 3 3 5 6 7 7 6 5 4 3 5 7 8 10 9 8 8
1 1 1 1 1 1 1 1 1 2 2 3 3 3 3 3 3 3 3 3 4 4 4 4 4 3 3 3 3 4 4 5 6 5 4 6 8 9 7 7 9 8 7
1 2 2 2 2 2 2 2 2 2 3 3 3 3 3 3 3 3 3 4 3 3 4 4 4 4 4 2 2 4 4 4 3 4 5 5 6 7 7 7 7 7 7
2 2 2 2 2 2 3 3 3 2 3 3 3 3 3 2 3 3 3 2 3 3 4 5 6 4 3 3 3 4 5 5 5 6 6 6 6 7 7 7 7 7 7
Wind_Direction
177 168 168 172 174 176 178 183 187 179 181 182 182 184 181 185 184 184 186 196 198 194 195 192 178 192 178 176 175 176 166 179 180 197 185 174 174 173 189 192 192 178 183
172 167 167 168 170 176 180 183 188 186 190 188 190 191 183 188 182 179 180 194 197 197 191 192 192 189 180 175 177 180 185 176 182 207 212 194 177 187 180 188 192 194 186
188 173 170 171 171 172 179 179 185 189 194 188 186 183 178 185 183 183 181 189 192 188 190 185 195 191 194 179 184 185 195 189 190 216 247 238 205 165 170 189 185 198 217
197 184 175 171 173 176 178 181 181 182 187 190 194 189 191 192 190 190 181 185 189 183 177 180 185 191 191 179 192 184 194 199 197 187 240 296 346 258 173 192 184 197 217
186 184 181 178 173 176 177 179 176 179 182 187 188 194 205 204 192 190 183 189 181 182 178 179 181 187 193 188 196 177 198 199 210 200 198 214 220 251 249 210 200 212 218
170 174 177 173 171 171 169 170 174 178 181 188 191 199 203 205 197 195 188 189 177 179 183 186 184 193 197 190 196 196 196 204 210 227 217 218 225 234 242 236 226 223 212
166 172 175 171 173 173 168 167 172 176 178 183 188 198 199 200 196 197 192 191 178 179 181 189 191 194 197 198 197 200 206 202 205 223 232 237 243 254 258 252 244 248 228
126 150 164 168 173 173 172 175 179 177 177 181 187 193 194 200 192 195 198 188 190 182 174 189 194 198 198 201 198 204 202 202 213 222 234 248 241 248 249 255 256 249 238
97 110 150 169 179 175 169 178 182 179 183 183 184 188 198 208 189 185 201 189 185 188 181 190 196 200 198 199 202 206 201 200 215 213 210 235 230 235 243 251 251 257 258
93 101 111 156 166 171 168 169 175 182 184 188 186 184 190 195 189 194 194 192 186 185 183 191 197 200 200 201 202 198 193 200 207 219 217 234 234 234 237 243 247 252 266
85 95 101 109 118 130 147 159 171 181 184 185 183 185 189 188 189 199 197 194 191 187 192 193 198 203 203 196 196 209 196 206 208 217 215 222 236 238 239 238 241 242 251
82 89 92 98 106 114 126 137 172 185 177 169 166 164 176 177 186 197 199 197 195 192 190 192 199 203 201 196 203 213 205 209 213 217 221 225 223 224 244 244 246 245 249
84 85 88 83 88 96 110 122 154 171 163 152 158 154 163 176 192 201 197 196 198 197 194 196 203 207 206 204 209 218 213 214 218 220 225 228 230 230 235 241 244 239 234
93 87 91 86 84 73 63 73 87 117 147 154 158 161 175 193 201 205 198 198 202 203 203 205 210 210 211 211 214 221 225 221 224 226 230 232 231 232 234 239 242 245 245
107 97 96 100 96 84 58 57 73 80 113 172 173 166 173 187 195 197 200 202 207 209 210 214 214 214 217 217 224 229 229 229 230 228 229 229 228 242 247 258 250 243 245
105 102 95 102 104 82 58 55 63 55 58 204 199 158 167 180 192 197 201 206 213 219 220 219 216 218 224 162 204 249 235 232 233 232 231 225 211 211 219 244 257 265 253
87 105 95 82 86 90 110 110 114 121 93 43 298 217 189 186 194 194 201 213 221 226 229 227 225 226 214 164 195 231 243 234 234 235 233 237 219 213 223 216 222 233 242
64 77 80 96 92 108 116 120 169 169 159 179 314 285 235 219 210 207 212 227 233 232 235 237 235 233 211 178 203 228 238 242 236 232 229 233 231 225 234 234 232 234 229
61 72 70 105 111 95 132 178 226 216 181 188 288 289 292 266 249 246 233 229 231 235 235 234 233 235 214 186 201 227 239 240 239 234 229 229 228 206 220 238 240 242 241
69 71 98 91 92 117 158 167 186 269 286 287 280 281 265 271 269 263 252 236 229 231 238 234 232 234 234 189 200 224 243 242 242 233 228 219 231 206 204 236 242 244 246
54 48 62 63 56 57 169 163 181 288 289 281 266 258 254 254 261 261 253 242 236 237 241 239 238 237 233 195 197 221 247 253 250 245 234 218 186 207 218 238 247 250 258
38 25 31 47 30 338 241 237 296 301 297 285 272 270 269 267 264 257 247 242 245 238 240 240 240 231 220 214 203 211 235 266 257 256 254 219 177 209 226 234 243 243 245
37 12 19 43 18 325 282 310 314 298 292 286 284 283 273 263 261 255 241 233 233 244 245 243 242 241 231 201 194 206 221 243 256 263 270 252 206 220 225 225 227 226 233
359 335 325 354 6 343 331 327 312 300 288 284 284 276 269 266 264 262 250 246 241 243 249 252 253 252 244 242 218 213 216 225 240 254 242 216 217 232 244 223 217 227 235
332 321 318 323 329 324 319 317 311 293 287 285 279 273 269 273 269 273 283 270 271 281 273 269 262 262 261 277 318 274 254 253 254 262 251 238 226 226 227 228 226 227 227
309 302 303 310 317 311 319 324 309 288 282 275 275 276 272 270 271 276 281 274 261 241 239 259 275 280 279 276 267 273 270 266 256 251 246 243 237 236 234 231 225 223 227